[Iaude] MPEC G162: 2024 GV3 [a=1.74,e=0.49,i=0.3,H=28.6]
    mpec at cfa.harvard.edu 
    mpec at cfa.harvard.edu
       
    Thu Apr 11 17:35:22 EDT 2024
    
    
  
M.P.E.C. 2024-G162                               Issued 2024 April 11, 21:33 UT
     The Minor Planet Electronic Circulars contain information on unusual
         minor planets, routine data on comets and natural satellites,
         and occasional editorial announcements.  They are published
    on behalf of Division F of the International Astronomical Union by the
          Minor Planet Center, Smithsonian Astrophysical Observatory,
                          Cambridge, MA 02138, U.S.A.
			  
             Prepared using the Tamkin Foundation Computer Network
                              MPC at CFA.HARVARD.EDU
            URL https://www.minorplanetcenter.net/    ISSN 1523-6714
                                    2024 GV3                                    
Observations:
     K24G03V*1C2024 04 11.27174311 40 54.174+12 58 15.06         20.98GVEG162G96
     K24G03V 1C2024 04 11.27692711 40 51.006+13 00 02.56         20.23GVEG162G96
     K24G03V 1C2024 04 11.28212011 40 47.881+13 01 50.02               VEG162G96
     K24G03V 1C2024 04 11.28730411 40 44.670+13 03 40.32         20.76GVEG162G96
     K24G03V  C2024 04 11.30670711 40 30.964+13 10 11.33         20.6 GVEG162H01
     K24G03V  C2024 04 11.31119811 40 28.258+13 11 47.04         21.2 GVEG162H01
     K24G03V  C2024 04 11.32210311 40 21.661+13 15 40.36         20.5 GVEG162H01
     K24G03V  C2024 04 11.32785811 40 18.191+13 17 44.08         21.1 GVEG162H01
     K24G03V KC2024 04 11.33518611 40 15.254+13 20 42.54         20.83GVEG162I52
     K24G03V KC2024 04 11.33625911 40 14.596+13 21 05.47         20.60GVEG162I52
     K24G03V KC2024 04 11.33732511 40 13.940+13 21 28.58         20.35GVEG162I52
     K24G03V KC2024 04 11.33839011 40 13.307+13 21 51.95         20.47GVEG162I52
     K24G03V KC2024 04 11.40207911 39 35.440+13 45 27.90         20.14GVEG162I52
     K24G03V KC2024 04 11.40315311 39 34.800+13 45 52.10         20.68GVEG162I52
     K24G03V KC2024 04 11.40422911 39 34.200+13 46 17.00               VEG162I52
     K24G03V KC2024 04 11.40529911 39 33.550+13 46 40.60               VEG162I52
     K24G03V 1C2024 04 11.82039 11 36 36.22 +17 03 49.5          19.9 VXEG162033
     K24G03V 1C2024 04 11.82086 11 36 35.83 +17 04 06.8          20.2 VXEG162033
     K24G03V 1C2024 04 11.82131 11 36 35.43 +17 04 23.2          20.4 VXEG162033
     K24G03V 1C2024 04 11.82178 11 36 35.02 +17 04 39.7          20.4 VXEG162033
     K24G03V 1C2024 04 11.82231 11 36 34.54 +17 04 58.4          19.7 VXEG162033
     K24G03V 1C2024 04 11.82282 11 36 34.10 +17 05 16.5          20.4 VXEG162033
     K24G03V KB2024 04 11.83221811 36 35.76 +17 12 04.7          19.6 GXEG162958
     K24G03V KB2024 04 11.83577811 36 32.63 +17 14 14.6          19.7 GXEG162958
     K24G03V KB2024 04 11.83935411 36 29.40 +17 16 24.2          19.5 GXEG162958
     K24G03V KB2024 04 11.85218511 36 16.89 +17 24 09.5          19.7 GXEG162I93
     K24G03V KB2024 04 11.85701711 36 12.43 +17 27 08.8          19.6 GXEG162I93
     K24G03V KB2024 04 11.86177211 36 07.95 +17 30 06.9          19.8 GXEG162I93
     K24G03V KB2024 04 11.87076 11 35 49.31 +17 35 37.1                ZEG162106
     K24G03V KB2024 04 11.87413 11 35 46.13 +17 37 44.8                ZEG162106
     K24G03V KB2024 04 11.87776 11 35 42.63 +17 40 01.1                ZEG162106
     K24G03V KB2024 04 11.88096 11 35 39.44 +17 42 01.7                ZEG162106
Observer details:
033 Karl Schwarzschild Observatory, Tautenburg.  Observers S. Melnikov, C.
    Hogner, F. Ludwig, M. Hartmann, B. Stecklum.  Measurer B. Stecklum.
    1.34-m f/3 Schmidt + CCD.
106 Crni Vrh.  Observer H. Mikuz.  0.60-m f/3.3 reflector + CMO.
958 Observatoire de Dax.  Observer P. Dupouy.  0.50-m f/4.5 Reflector + CMO.
G96 Mt. Lemmon Survey.  Observer H. Groeller.  Measurers T. Beuden, V. F.
    Carvajal, D. Fay, J. B. Fazekas, D. C. Fuls, A. R. Gibbs, A. D. Grauer, H.
    Groeller, J. K. Hogan, R. A. Kowalski, S. M. Larson, G. J. Leonard, D.
    Rankin, R. L. Seaman, F. C. Shelly, K. W. Wierzchos.  1.5-m reflector +
    10K CCD.
H01 Magdalena Ridge Observatory, Socorro.  Observers W. H. Ryan, E. V. Ryan.
    Measurer W. H. Ryan.  2.4-m f/8.9 Ritchey-Chretien + CCD.
I52 Steward Observatory, Mt. Lemmon Station.  Observers V. F. Carvajal, G. J.
    Leonard.  Measurers T. Beuden, V. F. Carvajal, D. Fay, J. B. Fazekas, D.
    C. Fuls, A. R. Gibbs, A. D. Grauer, H. Groeller, J. K. Hogan, R. A.
    Kowalski, S. M. Larson, G. J. Leonard, D. Rankin, R. L. Seaman, F. C.
    Shelly, K. W. Wierzchos.  1.0-m prime focus + CCD.
I93 St Pardon de Conques.  Observer F. Losse.  0.40-m f/3.7 reflector + CCD.
Orbital elements:
2024 GV3                                                 Earth MOID = 0.0027 AU
Epoch 2024 Mar. 31.0 TT = JDT 2460400.5                 Veres                   
M 338.36805              (2000.0)            P               Q                  
n   0.42990233     Peri.   75.58839     -0.30656114     +0.95185090             
a   1.7386928      Node   176.55944     -0.87559954     -0.28185471             
e   0.4875600      Incl.    0.34348     -0.37329040     -0.12057273             
P   2.29           H   28.61          G   0.15           U   8                  
Residuals in seconds of arc
240411 G96  0.3-  0.9+    240411 I52  0.1+  0.0     240411 958  0.1-  0.9+
240411 G96  0.2-  0.3+    240411 I52  0.6+  0.3+    240411 958  0.4+  0.7+
240411 G96  0.6+  0.9-    240411 I52  0.2+  0.1+    240411 958  0.0   0.7-
240411 G96  0.2+  0.5+    240411 I52  0.5+  0.5+    240411 I93  0.2-  0.1+
240411 H01  0.1-  0.2-    240411 I52  0.0   0.3-    240411 I93  0.1+  0.4-
240411 H01  0.1+  0.1-    240411 033  0.1+  0.6-    240411 I93  0.3-  0.1-
240411 H01  0.0   0.1+    240411 033  0.4+  0.1-    240411 106  1.1-  0.6-
240411 H01  0.0   0.1+    240411 033  0.3+  0.2+    240411 106  0.3+  0.4+
240411 I52  0.0   0.2+    240411 033  0.2+  0.2-    240411 106  1.1+  0.1-
240411 I52  0.0   0.2-    240411 033  0.0   0.4-    240411 106  0.4+  0.6-
240411 I52  0.1-  0.2-    240411 033  0.0   0.6-
Ephemeris:
2024 GV3                 a,e,i = 1.74, 0.49, 0                   q = 0.8910
Date    TT    R. A. (2000) Decl.     Delta      r    Elong.  Phase     V
2024 03 12    11 58 14.2 +00 03 56   0.2218  1.2137   172.0     6.5    26.3
...
2024 03 27    11 55 41.3 +01 02 43   0.1126  1.1094   172.1     7.1    24.6
...
2024 04 04    11 52 48.3 +02 40 08   0.06007 1.0577   162.8    16.2    23.5
...
2024 04 10    11 46 17.7 +08 12 54   0.02217 1.0216   152.6    26.8    21.6
2024 04 11    11 42 35.5 +11 36 11   0.01599 1.0159   148.9    30.6    21.0
2024 04 12    11 34 04.7 +19 08 30   0.0099371.0102   141.5    38.2    20.1
...
2024 04 18    00 01 29.6 +06 17 27   0.02862 0.9784    25.8   153.4    30.0
...
2024 04 26    23 58 59.4 +02 11 25   0.07951 0.9425    35.3   141.9    30.1
...
2024 05 11    00 07 47.3 +01 53 12   0.1789  0.9000    47.9   123.6    29.8
M. P. C. Staff               (C) Copyright 2024 MPC           M.P.E.C. 2024-G162
    
    
More information about the Iaude
mailing list